| time (UTC) | temp F | wind direction | speed MPH | gust MPH | rain 1hr in | rain 24hr in | rain mn in | humidity % | barometer mb |
| 20260904041955 | 68 | 266 | 8.0 | 10.0 | 0.00 | 0.00 | 0.00 | 85 | 1012.1 |
| 20260904041510 | 68 | 251 | 7.0 | 11.0 | 0.00 | 0.00 | 0.00 | 85 | 1012.1 |
| 20260904041010 | 68 | 244 | 8.0 | 12.0 | 0.00 | 0.00 | 0.00 | 86 | 1012.1 |
| 20260904040509 | 68 | 249 | 8.0 | 13.0 | 0.00 | 0.00 | 0.00 | 86 | 1012.1 |
| 20260904040009 | 68 | 261 | 9.0 | 14.0 | 0.00 | 0.00 | 0.00 | 86 | 1012.1 |
| 20260904035509 | 68 | 296 | 5.0 | 7.0 | 0.00 | 0.00 | 0.00 | 87 | 1012.1 |
| 20260904035008 | 68 | 273 | 4.0 | 5.0 | 0.00 | 0.00 | 0.00 | 87 | 1012.4 |
| 20260904034508 | 67 | 246 | 5.0 | 9.0 | 0.00 | 0.00 | 0.00 | 88 | 1012.4 |
| 20260904034008 | 67 | 250 | 5.0 | 8.0 | 0.00 | 0.00 | 0.00 | 88 | 1012.3 |
| 20260904033508 | 67 | 275 | 8.0 | 11.0 | 0.00 | 0.00 | 0.00 | 88 | 1012.4 |
| 20260904033007 | 67 | 241 | 7.0 | 9.0 | 0.00 | 0.00 | 0.00 | 88 | 1012.5 |
| 20260904032507 | 67 | 251 | 8.0 | 11.0 | 0.00 | 0.00 | 0.00 | 87 | 1012.7 |
| 20260904032007 | 67 | 236 | 4.0 | 6.0 | 0.00 | 0.00 | 0.00 | 86 | 1012.6 |
| 20260904031506 | 67 | 234 | 4.0 | 4.0 | 0.00 | 0.00 | 0.00 | 86 | 1012.7 |
| 20260904031006 | 67 | 225 | 4.0 | 8.0 | 0.00 | 0.00 | 0.00 | 86 | 1012.9 |
| 20260904030510 | 67 | 238 | 6.0 | 8.0 | 0.00 | 0.00 | 0.00 | 85 | 1013.0 |
| 20260904030015 | 67 | 252 | 4.0 | 6.0 | 0.00 | 0.00 | 0.00 | 85 | 1012.9 |
| 20260904025509 | 68 | 235 | 4.0 | 6.0 | 0.00 | 0.00 | 0.00 | 85 | 1013.2 |
| 20260904024959 | 68 | 243 | 4.0 | 8.0 | 0.00 | 0.00 | 0.00 | 84 | 1013.1 |
| 20260904024458 | 68 | 271 | 5.0 | 8.0 | 0.00 | 0.00 | 0.00 | 84 | 1013.4 |
| 20260904023958 | 68 | 284 | 9.0 | 13.0 | 0.00 | 0.00 | 0.00 | 84 | 1013.3 |
| 20260904023458 | 68 | 226 | 8.0 | 11.0 | 0.00 | 0.00 | 0.00 | 84 | 1013.2 |
| 20260904022957 | 68 | 168 | 4.0 | 5.0 | 0.00 | 0.00 | 0.00 | 83 | 1013.2 |
| 20260904022457 | 68 | 226 | 6.0 | 11.0 | 0.00 | 0.00 | 0.00 | 83 | 1013.2 |
| 20260904021956 | 68 | 280 | 3.0 | 5.0 | 0.00 | 0.00 | 0.00 | 83 | 1013.3 |
| 20260904021455 | 68 | 273 | 4.0 | 7.0 | 0.00 | 0.00 | 0.00 | 83 | 1013.4 |
| 20260904021010 | 68 | 274 | 6.0 | 9.0 | 0.00 | 0.00 | 0.00 | 83 | 1013.3 |
| 20260904020500 | 68 | 303 | 7.0 | 9.0 | 0.00 | 0.00 | 0.00 | 82 | 1013.4 |
| 20260904020000 | 68 | 276 | 8.0 | 9.0 | 0.00 | 0.00 | 0.00 | 82 | 1013.5 |
| 20260904015459 | 68 | 274 | 6.0 | 10.0 | 0.00 | 0.00 | 0.00 | 82 | 1013.5 |
| 20260904014959 | 68 | 281 | 4.0 | 6.0 | 0.00 | 0.00 | 0.00 | 81 | 1013.7 |
| 20260904014459 | 68 | 263 | 7.0 | 9.0 | 0.00 | 0.00 | 0.00 | 81 | 1013.5 |
| 20260904013958 | 68 | 258 | 4.0 | 4.0 | 0.00 | 0.00 | 0.00 | 81 | 1013.6 |
| 20260904013458 | 68 | 251 | 4.0 | 7.0 | 0.00 | 0.00 | 0.00 | 81 | 1013.6 |
| 20260904012957 | 67 | 244 | 5.0 | 8.0 | 0.00 | 0.00 | 0.00 | 81 | 1013.9 |
| 20260904012457 | 67 | 255 | 4.0 | 7.0 | 0.00 | 0.00 | 0.00 | 81 | 1013.7 |
| 20260904011956 | 67 | 212 | 4.0 | 7.0 | 0.00 | 0.00 | 0.00 | 81 | 1014.0 |
| 20260904011456 | 67 | 244 | 4.0 | 7.0 | 0.00 | 0.00 | 0.00 | 81 | 1014.1 |
| 20260904010955 | 67 | 235 | 3.0 | 4.0 | 0.00 | 0.00 | 0.00 | 81 | 1014.2 |
| 20260904010010 | 67 | 214 | 4.0 | 6.0 | 0.00 | 0.00 | 0.00 | 81 | 1014.3 |
| 20260904005459 | 67 | 223 | 5.0 | 6.0 | 0.00 | 0.00 | 0.00 | 81 | 1014.2 |
| 20260904004514 | 68 | 222 | 5.0 | 8.0 | 0.00 | 0.00 | 0.00 | 81 | 1014.4 |
| 20260904003519 | 67 | 205 | 4.0 | 5.0 | 0.00 | 0.00 | 0.00 | 81 | 1014.4 |
| 20260904003008 | 67 | 213 | 4.0 | 6.0 | 0.00 | 0.00 | 0.00 | 81 | 1014.5 |
| 20260904002008 | 67 | 246 | 4.0 | 6.0 | 0.00 | 0.00 | 0.00 | 81 | 1014.5 |
| 20260904001507 | 67 | 251 | 4.0 | 6.0 | 0.00 | 0.00 | 0.00 | 81 | 1014.4 |
| 20260904001005 | 67 | 270 | 4.0 | 6.0 | 0.00 | 0.00 | 0.00 | 81 | 1014.7 |
| 20260904000502 | 67 | 258 | 8.0 | 13.0 | 0.00 | 0.00 | 0.00 | 81 | 1014.6 |
| 20260904000002 | 67 | 250 | 5.0 | 8.0 | 0.00 | 0.00 | 0.00 | 82 | 1014.8 |
| 20260903235501 | 67 | 240 | 2.0 | 4.0 | 0.00 | 0.00 | 0.00 | 82 | 1014.9 |
| 20260903235001 | 67 | 240 | 4.0 | 5.0 | 0.00 | 0.00 | 0.00 | 82 | 1015.1 |
| 20260903234501 | 67 | 257 | 5.0 | 7.0 | 0.00 | 0.00 | 0.00 | 82 | 1015.3 |
| 20260903233500 | 67 | 269 | 4.0 | 5.0 | 0.00 | 0.00 | 0.00 | 83 | 1015.3 |
| 20260903233000 | 67 | 269 | 4.0 | 8.0 | 0.00 | 0.00 | 0.00 | 83 | 1015.4 |
| 20260903232500 | 67 | 269 | 8.0 | 9.0 | 0.00 | 0.00 | 0.00 | 84 | 1015.5 |
| 20260903231959 | 67 | 264 | 4.0 | 7.0 | 0.00 | 0.00 | 0.00 | 84 | 1015.5 |
| 20260903231458 | 67 | 255 | 3.0 | 5.0 | 0.00 | 0.00 | 0.00 | 85 | 1015.7 |
| 20260903230958 | 67 | 232 | 4.0 | 8.0 | 0.00 | 0.00 | 0.00 | 85 | 1015.7 |
| 20260903230458 | 67 | 251 | 7.0 | 10.0 | 0.00 | 0.00 | 0.00 | 85 | 1015.8 |
| 20260903225958 | 67 | 236 | 2.0 | 3.0 | 0.00 | 0.00 | 0.00 | 86 | 1015.9 |
| 20260903225512 | 67 | 230 | 2.0 | 4.0 | 0.00 | 0.00 | 0.00 | 86 | 1015.9 |
| 20260903225012 | 67 | 234 | 3.0 | 4.0 | 0.00 | 0.00 | 0.00 | 87 | 1016.0 |
| 20260903224511 | 67 | 236 | 4.0 | 8.0 | 0.00 | 0.00 | 0.00 | 87 | 1016.0 |
| 20260903223515 | 66 | 251 | 3.0 | 5.0 | 0.00 | 0.00 | 0.00 | 88 | 1016.3 |
| 20260903223003 | 66 | 245 | 2.0 | 4.0 | 0.00 | 0.00 | 0.00 | 88 | 1016.3 |
| 20260903222502 | 67 | 249 | 3.0 | 5.0 | 0.00 | 0.00 | 0.00 | 88 | 1016.3 |
| 20260903221502 | 67 | 246 | 3.0 | 4.0 | 0.00 | 0.00 | 0.00 | 88 | 1016.5 |
| 20260903221001 | 67 | 231 | 2.0 | 4.0 | 0.00 | 0.00 | 0.00 | 87 | 1016.3 |
| 20260903220501 | 67 | 216 | 2.0 | 4.0 | 0.00 | 0.00 | 0.00 | 87 | 1016.3 |
| 20260903215515 | 67 | 214 | 2.0 | 3.0 | 0.00 | 0.00 | 0.00 | 85 | 1016.5 |
| 20260903215010 | 67 | 213 | 2.0 | 3.0 | 0.00 | 0.00 | 0.00 | 84 | 1016.4 |
| 20260903214510 | 67 | 221 | 3.0 | 5.0 | 0.00 | 0.00 | 0.00 | 84 | 1016.6 |
| 20260903213510 | 67 | 224 | 4.0 | 8.0 | 0.00 | 0.00 | 0.00 | 85 | 1016.9 |
| 20260903213010 | 68 | 238 | 4.0 | 4.0 | 0.00 | 0.00 | 0.00 | 85 | 1016.9 |
| 20260903212509 | 68 | 260 | 3.0 | 4.0 | 0.00 | 0.00 | 0.00 | 86 | 1017.0 |
| 20260903211508 | 68 | 281 | 2.0 | 3.0 | 0.00 | 0.00 | 0.00 | 87 | 1017.1 |
| 20260903211008 | 68 | 270 | 2.0 | 4.0 | 0.00 | 0.00 | 0.00 | 87 | 1017.0 |
| 20260903210508 | 68 | 277 | 1.0 | 2.0 | 0.00 | 0.00 | 0.00 | 88 | 1017.0 |
| 20260903205507 | 68 | 258 | 5.0 | 11.0 | 0.00 | 0.00 | 0.00 | 86 | 1017.1 |
| 20260903205007 | 69 | 251 | 4.0 | 5.0 | 0.00 | 0.00 | 0.00 | 84 | 1016.9 |
| 20260903204507 | 69 | 247 | 5.0 | 8.0 | 0.00 | 0.00 | 0.00 | 83 | 1017.0 |
| 20260903203506 | 70 | 238 | 8.0 | 11.0 | 0.00 | 0.00 | 0.00 | 80 | 1016.8 |
| 20260903203006 | 70 | 248 | 4.0 | 6.0 | 0.00 | 0.00 | 0.00 | 79 | 1017.0 |
| 20260903202006 | 71 | 248 | 4.0 | 6.0 | 0.00 | 0.00 | 0.00 | 78 | 1016.8 |
| 20260903201505 | 71 | 245 | 7.0 | 8.0 | 0.00 | 0.00 | 0.00 | 77 | 1016.9 |
| 20260903201020 | 71 | 264 | 2.0 | 3.0 | 0.00 | 0.00 | 0.00 | 77 | 1016.8 |
| 20260903200510 | 71 | 258 | 3.0 | 5.0 | 0.00 | 0.00 | 0.00 | 77 | 1017.0 |
| 20260903195522 | 71 | 278 | 3.0 | 4.0 | 0.00 | 0.00 | 0.00 | 76 | 1016.7 |
| 20260903195011 | 71 | 279 | 4.0 | 7.0 | 0.00 | 0.00 | 0.00 | 76 | 1016.8 |
| 20260903194010 | 72 | 254 | 3.0 | 5.0 | 0.00 | 0.00 | 0.00 | 75 | 1016.9 |
| 20260903193500 | 72 | 278 | 2.0 | 4.0 | 0.00 | 0.00 | 0.00 | 74 | 1016.8 |
| 20260903193000 | 72 | 236 | 4.0 | 5.0 | 0.00 | 0.00 | 0.00 | 74 | 1016.8 |
| 20260903192512 | 72 | 194 | 2.0 | 4.0 | 0.00 | 0.00 | 0.00 | 73 | 1017.0 |
| 20260903191502 | 73 | 194 | 4.0 | 6.0 | 0.00 | 0.00 | 0.00 | 70 | 1016.9 |
| 20260903191002 | 73 | 201 | 2.0 | 5.0 | 0.00 | 0.00 | 0.00 | 70 | 1017.1 |
| 20260903190001 | 73 | 240 | 2.0 | 3.0 | 0.00 | 0.00 | 0.00 | 66 | 1016.9 |
| 20260903185501 | 74 | 250 | 3.0 | 4.0 | 0.00 | 0.00 | 0.00 | 62 | 1016.8 |
| 20260903185015 | 74 | 199 | 2.0 | 3.0 | 0.00 | 0.00 | 0.00 | 62 | 1017.0 |
| 20260903184505 | 74 | 254 | 3.0 | 5.0 | 0.00 | 0.00 | 0.00 | 61 | 1017.0 |
| 20260903183505 | 74 | 297 | 4.0 | 5.0 | 0.00 | 0.00 | 0.00 | 61 | 1016.9 |
| 20260903183004 | 74 | 230 | 3.0 | 5.0 | 0.00 | 0.00 | 0.00 | 61 | 1017.0 |
| 20260903182004 | 75 | 271 | 3.0 | 5.0 | 0.00 | 0.00 | 0.00 | 60 | 1017.1 |
| 20260903181503 | 75 | 258 | 2.0 | 3.0 | 0.00 | 0.00 | 0.00 | 60 | 1016.9 |
| 20260903180502 | 75 | 262 | 2.0 | 4.0 | 0.00 | 0.00 | 0.00 | 59 | 1017.1 |
| 20260903175502 | 76 | 271 | 4.0 | 7.0 | 0.00 | 0.00 | 0.00 | 56 | 1017.2 |
| 20260903175002 | 76 | 292 | 4.0 | 7.0 | 0.00 | 0.00 | 0.00 | 55 | 1017.1 |
| 20260903174001 | 78 | 284 | 4.0 | 5.0 | 0.00 | 0.00 | 0.00 | 53 | 1017.1 |
| 20260903173500 | 78 | 306 | 6.0 | 10.0 | 0.00 | 0.00 | 0.00 | 53 | 1017.2 |
| 20260903172500 | 78 | 289 | 5.0 | 8.0 | 0.00 | 0.00 | 0.00 | 52 | 1017.3 |
| 20260903171500 | 78 | 287 | 4.0 | 8.0 | 0.00 | 0.00 | 0.00 | 51 | 1017.4 |
| 20260903170959 | 79 | 285 | 6.0 | 9.0 | 0.00 | 0.00 | 0.00 | 50 | 1017.4 |
| 20260903170459 | 79 | 262 | 4.0 | 7.0 | 0.00 | 0.00 | 0.00 | 50 | 1017.3 |
| 20260903165458 | 80 | 265 | 6.0 | 9.0 | 0.00 | 0.00 | 0.00 | 50 | 1017.4 |
| 20260903164957 | 80 | 267 | 8.0 | 12.0 | 0.00 | 0.00 | 0.00 | 48 | 1017.0 |
| 20260903164457 | 80 | 232 | 7.0 | 10.0 | 0.00 | 0.00 | 0.00 | 48 | 1017.3 |
| 20260903164027 | 80 | 265 | 4.0 | 7.0 | 0.00 | 0.00 | 0.00 | 48 | 1017.4 |
| 20260903163517 | 80 | 276 | 4.0 | 11.0 | 0.00 | 0.00 | 0.00 | 48 | 1017.4 |
| 20260903163021 | 80 | 282 | 8.0 | 11.0 | 0.00 | 0.00 | 0.00 | 48 | 1017.3 |
| 20260903162505 | 80 | 286 | 4.0 | 6.0 | 0.00 | 0.00 | 0.00 | 50 | 1017.3 |
| 20260903162005 | 80 | 275 | 8.0 | 13.0 | 0.00 | 0.00 | 0.00 | 50 | 1017.3 |
| 20260903161505 | 80 | 297 | 10.0 | 11.0 | 0.00 | 0.00 | 0.00 | 51 | 1017.4 |
| 20260903161032 | 79 | 292 | 4.0 | 6.0 | 0.00 | 0.00 | 0.00 | 51 | 1017.2 |
| 20260903160507 | 79 | 296 | 8.0 | 11.0 | 0.00 | 0.00 | 0.00 | 51 | 1017.3 |
| 20260903160006 | 80 | 277 | 11.0 | 14.0 | 0.00 | 0.00 | 0.00 | 52 | 1017.2 |
| 20260903155505 | 79 | 278 | 4.0 | 5.0 | 0.00 | 0.00 | 0.00 | 55 | 1017.1 |
| 20260903155020 | 79 | 300 | 4.0 | 8.0 | 0.00 | 0.00 | 0.00 | 55 | 1017.1 |
| 20260903154505 | 79 | 285 | 8.0 | 14.0 | 0.00 | 0.00 | 0.00 | 57 | 1017.2 |
| 20260903154005 | 78 | 235 | 4.0 | 5.0 | 0.00 | 0.00 | 0.00 | 58 | 1017.1 |
| 20260903153504 | 79 | 234 | 6.0 | 8.0 | 0.00 | 0.00 | 0.00 | 58 | 1017.5 |
| 20260903153019 | 79 | 239 | 4.0 | 7.0 | 0.00 | 0.00 | 0.00 | 58 | 1017.5 |
| 20260903152519 | 79 | 261 | 2.0 | 4.0 | 0.00 | 0.00 | 0.00 | 58 | 1017.5 |
| 20260903152007 | 79 | 259 | 5.0 | 8.0 | 0.00 | 0.00 | 0.00 | 57 | 1017.8 |
| 20260903151521 | 79 | 255 | 8.0 | 11.0 | 0.00 | 0.00 | 0.00 | 54 | 1017.7 |
| 20260903151026 | 80 | 273 | 8.0 | 10.0 | 0.00 | 0.00 | 0.00 | 52 | 1017.9 |
| 20260903150516 | 81 | 246 | 2.0 | 4.0 | 0.00 | 0.00 | 0.00 | 52 | 1017.7 |
| 20260903150020 | 81 | 252 | 4.0 | 5.0 | 0.00 | 0.00 | 0.00 | 51 | 1017.8 |
| 20260903145510 | 82 | 245 | 8.0 | 11.0 | 0.00 | 0.00 | 0.00 | 48 | 1017.8 |
| 20260903145025 | 81 | 263 | 4.0 | 6.0 | 0.00 | 0.00 | 0.00 | 54 | 1017.7 |
| 20260903144509 | 80 | 259 | 3.0 | 4.0 | 0.00 | 0.00 | 0.00 | 55 | 1017.6 |
| 20260903144008 | 80 | 270 | 5.0 | 9.0 | 0.00 | 0.00 | 0.00 | 53 | 1017.7 |
| 20260903143508 | 80 | 270 | 7.0 | 10.0 | 0.00 | 0.00 | 0.00 | 53 | 1017.7 |
| 20260903143023 | 80 | 281 | 4.0 | 8.0 | 0.00 | 0.00 | 0.00 | 53 | 1017.8 |
| 20260903142505 | 81 | 318 | 5.0 | 8.0 | 0.00 | 0.00 | 0.00 | 51 | 1018.1 |
| 20260903142020 | 81 | 298 | 7.0 | 9.0 | 0.00 | 0.00 | 0.00 | 52 | 1017.9 |
| 20260903141524 | 82 | 276 | 4.0 | 5.0 | 0.00 | 0.00 | 0.00 | 49 | 1018.1 |
| 20260903141014 | 81 | 277 | 8.0 | 10.0 | 0.00 | 0.00 | 0.00 | 52 | 1017.8 |
| 20260903140514 | 81 | 271 | 8.0 | 10.0 | 0.00 | 0.00 | 0.00 | 52 | 1017.9 |
| 20260903140013 | 81 | 205 | 4.0 | 8.0 | 0.00 | 0.00 | 0.00 | 51 | 1018.1 |
| 20260903135513 | 81 | 232 | 5.0 | 9.0 | 0.00 | 0.00 | 0.00 | 51 | 1018.0 |
| 20260903135012 | 81 | 256 | 5.0 | 8.0 | 0.00 | 0.00 | 0.00 | 53 | 1018.0 |
| 20260903134512 | 79 | 243 | 6.0 | 12.0 | 0.00 | 0.00 | 0.00 | 53 | 1018.0 |
| 20260903134016 | 80 | 228 | 8.0 | 14.0 | 0.00 | 0.00 | 0.00 | 53 | 1018.1 |
| 20260903133516 | 80 | 231 | 8.0 | 11.0 | 0.00 | 0.00 | 0.00 | 54 | 1018.1 |
| 20260903133016 | 80 | 284 | 8.0 | 11.0 | 0.00 | 0.00 | 0.00 | 56 | 1018.3 |
| 20260903132515 | 80 | 251 | 6.0 | 10.0 | 0.00 | 0.00 | 0.00 | 55 | 1018.3 |
| 20260903132015 | 80 | 217 | 5.0 | 8.0 | 0.00 | 0.00 | 0.00 | 55 | 1018.2 |
| 20260903131505 | 80 | 247 | 4.0 | 6.0 | 0.00 | 0.00 | 0.00 | 55 | 1018.4 |
| 20260903131020 | 80 | 263 | 5.0 | 8.0 | 0.00 | 0.00 | 0.00 | 54 | 1018.2 |
| 20260903130504 | 80 | 288 | 4.0 | 8.0 | 0.00 | 0.00 | 0.00 | 52 | 1018.4 |
| 20260903130019 | 81 | 253 | 4.0 | 7.0 | 0.00 | 0.00 | 0.00 | 53 | 1018.4 |
| 20260903125524 | 80 | 268 | 4.0 | 9.0 | 0.00 | 0.00 | 0.00 | 55 | 1018.4 |
| 20260903125014 | 80 | 267 | 4.0 | 8.0 | 0.00 | 0.00 | 0.00 | 56 | 1018.4 |
| 20260903124513 | 79 | 240 | 3.0 | 4.0 | 0.00 | 0.00 | 0.00 | 58 | 1018.5 |
| 20260903124011 | 78 | 234 | 3.0 | 6.0 | 0.00 | 0.00 | 0.00 | 59 | 1018.4 |
| 20260903123510 | 78 | 236 | 4.0 | 5.0 | 0.00 | 0.00 | 0.00 | 60 | 1018.4 |
| 20260903123025 | 77 | 244 | 3.0 | 5.0 | 0.00 | 0.00 | 0.00 | 61 | 1018.7 |
| 20260903122509 | 76 | 254 | 5.0 | 8.0 | 0.00 | 0.00 | 0.00 | 61 | 1018.7 |
| 20260903122009 | 76 | 240 | 3.0 | 5.0 | 0.00 | 0.00 | 0.00 | 61 | 1018.8 |
| 20260903121509 | 76 | 256 | 4.0 | 5.0 | 0.00 | 0.00 | 0.00 | 61 | 1018.7 |
| 20260903121023 | 76 | 253 | 3.0 | 4.0 | 0.00 | 0.00 | 0.00 | 60 | 1018.8 |
| 20260903120508 | 76 | 260 | 4.0 | 6.0 | 0.00 | 0.00 | 0.00 | 60 | 1018.8 |
| 20260903120008 | 76 | 261 | 6.0 | 8.0 | 0.00 | 0.00 | 0.00 | 60 | 1018.5 |
| 20260903115508 | 76 | 253 | 7.0 | 9.0 | 0.00 | 0.00 | 0.00 | 60 | 1018.6 |
| 20260903115022 | 76 | 271 | 5.0 | 8.0 | 0.00 | 0.00 | 0.00 | 60 | 1018.6 |
| 20260903114507 | 76 | 266 | 6.0 | 10.0 | 0.00 | 0.00 | 0.00 | 60 | 1018.6 |
| 20260903114007 | 76 | 264 | 4.0 | 8.0 | 0.00 | 0.00 | 0.00 | 60 | 1018.6 |
| 20260903113506 | 76 | 270 | 4.0 | 5.0 | 0.00 | 0.00 | 0.00 | 60 | 1018.5 |
| 20260903113021 | 76 | 249 | 8.0 | 10.0 | 0.00 | 0.00 | 0.00 | 60 | 1018.4 |
| 20260903112506 | 76 | 278 | 4.0 | 7.0 | 0.00 | 0.00 | 0.00 | 60 | 1018.5 |
| 20260903112005 | 76 | 235 | 4.0 | 6.0 | 0.00 | 0.00 | 0.00 | 61 | 1018.4 |
| 20260903111505 | 76 | 280 | 2.0 | 3.0 | 0.00 | 0.00 | 0.00 | 62 | 1018.4 |
| 20260903111020 | 76 | 282 | 4.0 | 9.0 | 0.00 | 0.00 | 0.00 | 61 | 1018.4 |
| 20260903110519 | 76 | 257 | 5.0 | 8.0 | 0.00 | 0.00 | 0.00 | 61 | 1018.4 |
| 20260903110009 | 76 | 252 | 7.0 | 10.0 | 0.00 | 0.00 | 0.00 | 61 | 1018.4 |
| 20260903105509 | 75 | 264 | 2.0 | 4.0 | 0.00 | 0.00 | 0.00 | 63 | 1018.5 |
| 20260903105023 | 75 | 257 | 3.0 | 5.0 | 0.00 | 0.00 | 0.00 | 62 | 1018.6 |
| 20260903104508 | 75 | 246 | 2.0 | 4.0 | 0.00 | 0.00 | 0.00 | 62 | 1018.5 |
| 20260903104008 | 75 | 235 | 3.0 | 4.0 | 0.00 | 0.00 | 0.00 | 62 | 1018.6 |
| 20260903103507 | 75 | 222 | 4.0 | 7.0 | 0.00 | 0.00 | 0.00 | 61 | 1018.5 |
| 20260903103022 | 76 | 202 | 7.0 | 9.0 | 0.00 | 0.00 | 0.00 | 61 | 1018.5 |
| 20260903102512 | 76 | 230 | 4.0 | 5.0 | 0.00 | 0.00 | 0.00 | 63 | 1018.5 |
| 20260903102011 | 75 | 240 | 2.0 | 2.0 | 0.00 | 0.00 | 0.00 | 65 | 1018.5 |
| 20260903101510 | 73 | 251 | 2.0 | 4.0 | 0.00 | 0.00 | 0.00 | 67 | 1018.6 |
| 20260903101025 | 72 | 234 | 5.0 | 8.0 | 0.00 | 0.00 | 0.00 | 66 | 1018.7 |
| 20260903100514 | 72 | 232 | 4.0 | 6.0 | 0.00 | 0.00 | 0.00 | 70 | 1018.6 |
| 20260903100013 | 72 | 237 | 2.0 | 4.0 | 0.00 | 0.00 | 0.00 | 71 | 1018.5 |
| 20260903095513 | 71 | 218 | 2.0 | 4.0 | 0.00 | 0.00 | 0.00 | 71 | 1018.7 |
| 20260903095028 | 71 | 205 | 3.0 | 4.0 | 0.00 | 0.00 | 0.00 | 71 | 1018.7 |
| 20260903094503 | 71 | 203 | 7.0 | 11.0 | 0.00 | 0.00 | 0.00 | 70 | 1018.7 |
| 20260903094002 | 72 | 169 | 4.0 | 6.0 | 0.00 | 0.00 | 0.00 | 71 | 1018.6 |
| 20260903093517 | 71 | 202 | 2.0 | 4.0 | 0.00 | 0.01 | 0.00 | 71 | 1018.5 |
| 20260903093022 | 71 | 210 | 4.0 | 4.0 | 0.00 | 0.01 | 0.00 | 71 | 1018.5 |
| 20260903092506 | 71 | 261 | 3.0 | 5.0 | 0.00 | 0.01 | 0.00 | 71 | 1018.5 |
| 20260903092006 | 71 | 290 | 3.0 | 4.0 | 0.00 | 0.01 | 0.00 | 71 | 1018.6 |
| 20260903091506 | 71 | 285 | 3.0 | 4.0 | 0.00 | 0.02 | 0.00 | 71 | 1018.6 |
| 20260903091035 | 71 | 260 | 5.0 | 8.0 | 0.00 | 0.02 | 0.00 | 71 | 1018.6 |
| 20260903090510 | 71 | 291 | 6.0 | 11.0 | 0.00 | 0.02 | 0.00 | 71 | 1018.7 |
| 20260903090010 | 71 | 269 | 4.0 | 4.0 | 0.00 | 0.04 | 0.00 | 72 | 1018.6 |
| 20260903085509 | 70 | 276 | 3.0 | 4.0 | 0.00 | 0.04 | 0.00 | 73 | 1018.6 |
| 20260903085024 | 70 | 294 | 4.0 | 6.0 | 0.00 | 0.04 | 0.00 | 73 | 1018.6 |
| 20260903084513 | 69 | 280 | 2.0 | 3.0 | 0.00 | 0.04 | 0.00 | 73 | 1018.6 |
| 20260903084013 | 69 | 293 | 4.0 | 8.0 | 0.00 | 0.04 | 0.00 | 73 | 1018.4 |
| 20260903083513 | 69 | 297 | 4.0 | 8.0 | 0.00 | 0.04 | 0.00 | 73 | 1018.4 |
| 20260903083012 | 69 | 320 | 4.0 | 7.0 | 0.00 | 0.04 | 0.00 | 73 | 1018.3 |
| 20260903082512 | 69 | 323 | 2.0 | 4.0 | 0.00 | 0.04 | 0.00 | 74 | 1018.5 |
| 20260903082012 | 69 | 325 | 5.0 | 8.0 | 0.00 | 0.04 | 0.00 | 74 | 1018.4 |
| 20260903081511 | 69 | 306 | 3.0 | 4.0 | 0.00 | 0.04 | 0.00 | 74 | 1018.3 |
| 20260903081016 | 69 | 287 | 4.0 | 6.0 | 0.00 | 0.04 | 0.00 | 75 | 1018.1 |
| 20260903080516 | 69 | 312 | 4.0 | 5.0 | 0.00 | 0.04 | 0.00 | 75 | 1018.2 |
| 20260903080015 | 69 | 285 | 4.0 | 6.0 | 0.00 | 0.04 | 0.00 | 76 | 1018.0 |
| 20260903075515 | 69 | 254 | 7.0 | 9.0 | 0.00 | 0.04 | 0.00 | 76 | 1017.9 |
| 20260903075018 | 68 | 221 | 4.0 | 7.0 | 0.00 | 0.04 | 0.00 | 76 | 1017.8 |
| 20260903074502 | 68 | 229 | 4.0 | 8.0 | 0.00 | 0.04 | 0.00 | 77 | 1017.9 |
| 20260903074002 | 68 | 230 | 4.0 | 8.0 | 0.00 | 0.04 | 0.00 | 77 | 1017.7 |
| 20260903073502 | 68 | 232 | 3.0 | 4.0 | 0.00 | 0.04 | 0.00 | 78 | 1017.5 |
| 20260903073017 | 67 | 240 | 5.0 | 9.0 | 0.00 | 0.04 | 0.00 | 80 | 1017.6 |
| 20260903072516 | 67 | 248 | 4.0 | 7.0 | 0.00 | 0.04 | 0.00 | 80 | 1017.4 |
| 20260903072016 | 67 | 238 | 4.0 | 8.0 | 0.00 | 0.04 | 0.00 | 82 | 1017.5 |
| 20260903071513 | 67 | 231 | 8.0 | 10.0 | 0.00 | 0.04 | 0.00 | 82 | 1017.3 |
| 20260903071013 | 67 | 231 | 2.0 | 6.0 | 0.00 | 0.04 | 0.00 | 83 | 1017.4 |
| 20260903070512 | 67 | 224 | 4.0 | 5.0 | 0.00 | 0.04 | 0.00 | 83 | 1017.3 |
| 20260903070012 | 67 | 222 | 2.0 | 3.0 | 0.00 | 0.04 | 0.00 | 83 | 1017.1 |
| 20260903065512 | 67 | 228 | 5.0 | 8.0 | 0.00 | 0.04 | 0.00 | 83 | 1017.2 |
| 20260903065012 | 67 | 231 | 4.0 | 7.0 | 0.00 | 0.04 | 0.00 | 84 | 1017.1 |
| 20260903064511 | 67 | 176 | 4.0 | 4.0 | 0.00 | 0.04 | 0.00 | 84 | 1017.1 |
| 20260903064025 | 66 | 178 | 4.0 | 10.0 | 0.00 | 0.04 | 0.00 | 84 | 1017.2 |
| 20260903063515 | 66 | 246 | 3.0 | 5.0 | 0.00 | 0.04 | 0.00 | 84 | 1017.5 |
| 20260903063014 | 66 | 258 | 3.0 | 4.0 | 0.00 | 0.04 | 0.00 | 84 | 1017.4 |
| 20260903062514 | 66 | 240 | 1.0 | 2.0 | 0.00 | 0.04 | 0.00 | 84 | 1017.4 |
| 20260903062014 | 66 | 270 | 2.0 | 3.0 | 0.00 | 0.04 | 0.00 | 84 | 1017.6 |
| 20260903061513 | 66 | 278 | 2.0 | 3.0 | 0.00 | 0.04 | 0.00 | 83 | 1017.6 |
| 20260903061018 | 66 | 257 | 2.0 | 3.0 | 0.00 | 0.04 | 0.00 | 83 | 1017.5 |
| 20260903060518 | 66 | 252 | 2.0 | 4.0 | 0.00 | 0.04 | 0.00 | 83 | 1017.5 |
| 20260903060007 | 66 | 272 | 1.0 | 2.0 | 0.00 | 0.04 | 0.00 | 83 | 1017.6 |
| 20260903055507 | 66 | 262 | 4.0 | 5.0 | 0.00 | 0.04 | 0.00 | 83 | 1017.6 |
| 20260903055022 | 66 | 241 | 4.0 | 5.0 | 0.00 | 0.04 | 0.00 | 83 | 1017.3 |
| 20260903054506 | 66 | 259 | 3.0 | 4.0 | 0.00 | 0.04 | 0.00 | 83 | 1017.4 |
| 20260903054005 | 66 | 255 | 3.0 | 5.0 | 0.00 | 0.04 | 0.00 | 83 | 1017.4 |
| 20260903053505 | 66 | 253 | 3.0 | 6.0 | 0.00 | 0.04 | 0.00 | 83 | 1017.4 |
| 20260903053035 | 66 | 242 | 4.0 | 4.0 | 0.00 | 0.04 | 0.00 | 83 | 1017.4 |
| 20260903052509 | 66 | 267 | 4.0 | 6.0 | 0.00 | 0.04 | 0.00 | 83 | 1017.3 |
| 20260903052008 | 66 | 256 | 4.0 | 5.0 | 0.00 | 0.04 | 0.00 | 83 | 1017.2 |
| 20260903051508 | 66 | 297 | 3.0 | 7.0 | 0.00 | 0.04 | 0.00 | 84 | 1017.1 |
| 20260903051023 | 66 | 357 | 4.0 | 9.0 | 0.00 | 0.04 | 0.00 | 84 | 1016.7 |
| 20260903050522 | 66 | 268 | 4.0 | 4.0 | 0.00 | 0.04 | 0.00 | 84 | 1017.0 |
| 20260903050011 | 66 | 276 | 7.0 | 9.0 | 0.00 | 0.04 | 0.00 | 85 | 1017.0 |
| 20260903045511 | 66 | 247 | 2.0 | 4.0 | 0.00 | 0.04 | 0.00 | 85 | 1017.0 |
| 20260903045025 | 66 | 258 | 3.0 | 4.0 | 0.00 | 0.04 | 0.00 | 85 | 1016.9 |
| 20260903044510 | 66 | 294 | 2.0 | 3.0 | 0.00 | 0.04 | 0.00 | 85 | 1016.9 |
| 20260903044009 | 72 | 316 | 2.0 | 3.0 | 0.00 | 0.04 | 0.00 | 88 | 1017.0 |
| 20260903043524 | 66 | 313 | 4.0 | 5.0 | 0.00 | 0.04 | 0.00 | 86 | 1017.1 |
| 20260903043013 | 66 | 247 | 2.0 | 3.0 | 0.00 | 0.04 | 0.00 | 86 | 1016.9 |
| 20260903042513 | 66 | 267 | 1.0 | 2.0 | 0.00 | 0.04 | 0.00 | 86 | 1016.9 |
| 20260903042012 | 66 | 281 | 2.0 | 3.0 | 0.00 | 0.04 | 0.00 | 86 | 1017.0 |